Regional Weather Roundup
Issued by NWS

Home | Current Version | Previous Version | Text Only | Print | Product List | Glossary On
Versions: 1 2 3 4 5 6 7 8 9 10 11 12 13 14 15 16 17 18 19 20 21 22 23 24 25 26 27 28 29 30 31 32 33 34 35 36 37 38 39 40 41 42 43 44 45 46 47 48 49 50
000
ASUS44 KJAN 260410
RWRMS

MISSISSIPPI HOURLY WEATHER ROUNDUP
NATIONAL WEATHER SERVICE JACKSON MS
1100 PM CDT WED MAY 25 2016

NOTE: "FAIR: INDICATES FEW OR NO CLOUDS BELOW 12,000 FEET WITH NO
SIGNIFICANT WEATHER AND/OR OBSTRUCTIONS TO VISIBILITY.

MSZ001>002-007>008-010>013-018>021-025>028-034>036-260500-
NORTHWEST MISSISSIPPI

CITY           SKY/WX    TMP DP  RH WIND       PRES   REMARKS
BATESVILLE     FAIR      76  64  65 SE5       30.09F
CLARKSDALE     MOCLDY    79  70  73 SE10      30.06F
CLEVELAND      CLOUDY    80  71  75 S12       30.06F
GREENWOOD      CLEAR     79  64  60 SE9       30.08S
GREENVILLE     PTCLDY    78  65  63 SE7       30.06F
OLIVE BRANCH   CLEAR     66  66 100 SE6       30.09S
OXFORD         FAIR      73  59  60 SE9G16    30.11F
TUNICA         PTCLDY    73  68  83 SE9       30.07S
WINONA         CLOUDY    76  67  75 E3        30.10F
$$

MSZ003>006-009-014>017-022>024-029>033-037>039-260500-
NORTHEAST MISSISSIPPI

CITY           SKY/WX    TMP DP  RH WIND       PRES   REMARKS
COLUMBUS AFB   PTCLDY    72  64  76 SE5       30.11F
CORINTH          N/A     64  63  94 S6        30.09
GOLDN TRIANGLE PTCLDY    75  61  60 SE7       30.12F
STARKVILLE     FAIR      73  63  68 S3        30.12S
TUPELO         CLEAR     70  61  73 SE5       30.11F
$$

MSZ040-058-260500-
CENTRAL MISSISSIPPI

CITY           SKY/WX    TMP DP  RH WIND       PRES   REMARKS
JACKSON INTL   CLOUDY    77  71  82 CALM      30.11R
JACKSON HAWKNS CLOUDY    77  70  79 S6        30.11R
MADISON        MOCLDY    77  70  78 CALM      30.11R
MERIDIAN KEY   CLOUDY    76  65  68 NW3       30.15R
MERIDIAN NAS   MOCLDY    75  62  64 CALM      30.15R
VICKSBURG TVR  MOCLDY    74  69  85 CALM      30.08S
VICKSBURG VKS  CLEAR     79  70  73 S10       30.06F
$$

MSZ059>079-260500-
SOUTH MISSISSIPPI

CITY           SKY/WX    TMP DP  RH WIND       PRES   REMARKS
BROOKHAVEN     FAIR     N/A N/A N/A S9        30.13F
COLUMBIA       FAIR      75  68  78 S8G14     30.17F
HATTIESBURG    MOCLDY    75  68  78 S8        30.14F
MCCOMB         CLOUDY    75  69  81 SE12      30.13F
NATCHEZ        CLOUDY    79  72  78 SE13G20   30.11R
PINE BELT      CLOUDY    73  64  73 S5        30.15F
$$

MSZ080>082-260500-
COASTAL MISSISSIPPI

CITY           SKY/WX    TMP DP  RH WIND       PRES   REMARKS
BILOXI         CLEAR     77  70  78 SE5       30.15R
PASCAGOULA     MOCLDY    64  64 100 CALM      30.16R
GULFPORT       PTCLDY    75  69  81 SE6       30.14S
$$



USA.gov is the U.S. government's official web portal to all federal, state and local government web resources and services.